Avalon, CA

4:13 AM PST on February 21, 2018 (GMT -0800)
Catalina

Weather History for KAVX - March, 2013

Change the Weather History Date:

Tuesday, March 12, 2013

  Actual Average Record
Temperature  
Mean Temperature 65 °F -  
Max Temperature 73 °F 59 °F 88 °F (2007)
Min Temperature 57 °F 47 °F 41 °F (2006)
Growing Degree Days 15 (Base 50)    
Moisture  
Dew Point 30 °F    
Average Humidity 27    
Maximum Humidity 42    
Minimum Humidity 16    
Precipitation  
Precipitation 0.00 in - - ()
Sea Level Pressure  
Sea Level Pressure 30.04 in    
Wind  
Wind Speed 5 mph (NW)    
Max Wind Speed 9 mph    
Max Gust Speed -    
Visibility 10 miles    
Events      
Averages and records for this station are not official NWS values.
T = Trace of Precipitation, MM = Missing Value Source: NWS Daily Summary

Daily Weather History Graph

Daily Weather History Graph

Search for Another Location

Airport or City:

Trip Planner

Search our weather history database for the weather conditions in past years. The results will help you decide how hot, cold, wet, or windy it might be!

Date:

Astronomy

Mar. 12, 2013 Rise Set
Actual Time 7:07 AM PDT 6:59 PM PDT
Civil Twilight 6:42 AM PDT 7:24 PM PDT
Nautical Twilight 6:14 AM PDT 7:53 PM PDT
Astronomical Twilight 5:45 AM PDT 8:22 PM PDT
Moon 7:21 AM PDT (3/12) 8:12 PM PDT (3/12)
Length of Visible Light 12h 41m
Length of Day
11h 51m
New Moon, 1% of the Moon is Illuminated
Mar 12
New Moon
Mar 19
First Quarter
Mar 27
Full
Apr 2
Last Quarter
Apr 10
New

Hourly Weather History & Observations

Time (PDT) Temp. Dew Point Humidity Pressure Visibility Wind Dir Wind Speed Gust Speed Precip Events Conditions
12:51 AM 57.9 °F 33.1 °F 39% 30.06 in 10.0 mi NW 4.6 mph - N/A   Clear
1:51 AM 57.9 °F 35.1 °F 42% 30.06 in 10.0 mi NW 4.6 mph - N/A   Clear
2:51 AM 57.9 °F 28.0 °F 32% 30.04 in 10.0 mi WNW 5.8 mph - N/A   Clear
3:51 AM 57.9 °F 25.0 °F 28% 30.02 in 10.0 mi NNW 5.8 mph - N/A   Clear
4:51 AM 57.0 °F 30.0 °F 36% 30.02 in 10.0 mi NNW 4.6 mph - N/A   Clear
7:51 AM 64.0 °F 18.0 °F 17% 30.03 in 10.0 mi NE 4.6 mph - N/A   Clear
8:51 AM 66.9 °F 28.0 °F 23% 30.04 in 10.0 mi Calm Calm - N/A   Clear
9:51 AM 64.9 °F 35.1 °F 33% 30.06 in 10.0 mi NNW 3.5 mph - N/A   Clear
10:51 AM 69.1 °F 39.0 °F 33% 30.07 in 10.0 mi NNW 4.6 mph - N/A   Clear
11:51 AM 73.0 °F 37.9 °F 28% 30.06 in 10.0 mi North 3.5 mph - N/A   Clear
12:51 PM 71.1 °F 32.0 °F 24% 30.06 in 10.0 mi Calm Calm - N/A   Clear
1:51 PM 72.0 °F 34.0 °F 25% 30.04 in 10.0 mi WNW 4.6 mph - N/A   Clear
2:51 PM 73.0 °F 39.9 °F 30% 30.03 in 10.0 mi NNW 4.6 mph - N/A   Clear
3:51 PM 72.0 °F 39.0 °F 30% 30.02 in 10.0 mi WSW 5.8 mph - N/A   Clear
4:51 PM 73.0 °F 34.0 °F 24% 30.01 in 10.0 mi WSW 5.8 mph - N/A   Clear
5:51 PM 71.1 °F 21.9 °F 16% 30.01 in 10.0 mi West 6.9 mph - N/A   Clear
7:51 PM 66.9 °F 21.0 °F 17% 30.03 in 10.0 mi West 9.2 mph - N/A   Clear
8:51 PM 68.0 °F 19.9 °F 16% 30.04 in 10.0 mi WNW 6.9 mph - N/A   Clear
10:51 PM 64.0 °F 24.1 °F 22% 30.08 in 10.0 mi NW 6.9 mph - N/A   Clear
11:51 PM 66.9 °F 19.9 °F 17% 30.06 in 10.0 mi NNW 6.9 mph - N/A   Clear